CW1767 Weather Reports


Display with metric or nautical units.
time (UTC)temp
F
wind
direction
speed
MPH
gust
MPH
rain 1hr
in
rain 24hr
in
rain mn
in
humidity
%
barometer
mb
20260831013031 76 179 0.0 1.0 0.00 0.00 0.00 89 1019.2
20260831011535 76 179 0.0 0.0 0.00 0.00 0.00 88 1019.1
20260831010029 76 179 0.0 1.0 0.00 0.00 0.00 88 1019.0
20260831004529 77 179 0.0 0.0 0.00 0.00 0.00 87 1019.0
20260831003029 77 180 0.0 1.0 0.00 0.00 0.00 86 1019.0
20260831001528 78 179 0.0 1.0 0.00 0.00 0.00 85 1018.8
20260831000037 79 182 0.0 2.0 0.00 0.00 0.00 85 1018.8
20260830234525 79 180 0.0 2.0 0.00 0.00 0.00 84 1018.7
20260830233034 80 185 0.0 1.0 0.00 0.00 0.00 82 1018.8
20260830231530 82 170 0.0 2.0 0.00 0.00 0.00 79 1018.7
20260830230026 82 180 0.0 1.0 0.00 0.00 0.00 76 1018.6
20260830224524 82 181 0.0 2.0 0.00 0.00 0.00 75 1018.6
20260830223024 83 176 0.0 1.0 0.00 0.00 0.00 73 1018.4
20260830221524 83 180 0.0 3.0 0.00 0.00 0.00 72 1018.4
20260830220024 83 185 0.0 2.0 0.00 0.00 0.00 70 1018.4
20260830214531 84 184 0.0 2.0 0.00 0.00 0.00 69 1018.3
20260830213021 84 183 0.0 1.0 0.00 0.00 0.00 65 1018.5
20260830211521 84 188 0.0 2.0 0.00 0.00 0.00 60 1018.5
20260830210029 84 191 0.0 3.0 0.00 0.00 0.00 59 1018.4
20260830204527 85 194 0.0 2.0 0.00 0.00 0.00 61 1018.5
20260830203020 85 186 0.0 3.0 0.00 0.00 0.00 61 1018.5
20260830201519 86 167 0.0 3.0 0.00 0.00 0.00 55 1018.6
20260830200014 88 128 0.0 1.0 0.00 0.00 0.00 59 1018.8
20260830194519 88 180 0.0 3.0 0.00 0.00 0.00 55 1019.3
20260830193012 88 214 0.0 2.0 0.00 0.00 0.00 58 1019.3
20260830191517 88 175 0.0 2.0 0.00 0.00 0.00 58 1019.5
20260830190009 88 198 1.0 3.0 0.00 0.00 0.00 58 1019.7
20260830184508 88 194 0.0 2.0 0.00 0.00 0.00 58 1020.0
20260830183007 88 180 0.0 2.0 0.00 0.00 0.00 56 1020.3
20260830181504 88 189 0.0 2.0 0.00 0.00 0.00 60 1020.5
20260830180001 87 182 0.0 2.0 0.00 0.00 0.00 62 1020.5
20260830174600 87 213 0.0 2.0 0.00 0.00 0.00 66 1020.6
20260830173059 87 184 0.0 2.0 0.00 0.00 0.00 65 1020.8
20260830171607 87 244 0.0 1.0 0.00 0.00 0.00 67 1021.0
20260830170058 87 184 0.0 2.0 0.00 0.00 0.00 66 1021.1
20260830164602 86 229 0.0 2.0 0.00 0.00 0.00 68 1021.2
20260830163051 86 205 0.0 2.0 0.00 0.00 0.00 68 1021.3
20260830161549 85 178 0.0 2.0 0.00 0.00 0.00 69 1021.5
20260830160044 84 98 0.0 2.0 0.00 0.00 0.00 71 1021.5
20260830154541 82 187 0.0 1.0 0.00 0.00 0.00 73 1021.8
20260830153039 82 202 0.0 1.0 0.00 0.00 0.00 73 1021.8
20260830151540 80 173 0.0 2.0 0.00 0.00 0.00 76 1021.9
20260830150032 79 179 0.0 1.0 0.00 0.00 0.00 79 1021.9
20260830144528 78 144 0.0 1.0 0.00 0.00 0.00 81 1021.9
20260830143030 77 177 0.0 1.0 0.00 0.00 0.00 80 1021.9
20260830141534 76 178 0.0 1.0 0.00 0.00 0.00 84 1022.1
20260830140020 75 175 0.0 2.0 0.00 0.00 0.00 86 1022.2
20260830134526 75 178 0.0 2.0 0.00 0.00 0.00 87 1022.1
20260830133012 74 173 0.0 0.0 0.00 0.00 0.00 90 1022.4
20260830131508 73 174 0.0 0.0 0.00 0.00 0.00 92 1022.6
20260830130010 72 174 0.0 1.0 0.00 0.00 0.00 94 1022.9
20260830124600 71 126 0.0 1.0 0.00 0.00 0.00 95 1022.8
20260830123124 70 171 0.0 0.0 0.00 0.00 0.00 96 1022.9
20260830121602 69 175 0.0 0.0 0.00 0.00 0.00 96 1022.9
20260830120054 67 176 0.0 0.0 0.00 0.00 0.00 95 1022.9
20260830114604 66 136 0.0 0.0 0.00 0.00 0.00 95 1022.9
20260830113049 65 136 0.0 0.0 0.00 0.00 0.00 95 1022.8
20260830111548 64 136 0.0 0.0 0.00 0.00 0.00 94 1022.8
20260830110047 64 136 0.0 0.0 0.00 0.00 0.00 94 1022.7
20260830104552 63 136 0.0 0.0 0.00 0.00 0.00 94 1022.6
20260830103047 64 136 0.0 0.0 0.00 0.00 0.00 94 1022.6
20260830101545 64 136 0.0 0.0 0.00 0.00 0.00 94 1022.7
20260830100045 64 136 0.0 0.0 0.00 0.00 0.00 94 1022.7
20260830094544 64 136 0.0 0.0 0.00 0.00 0.00 94 1022.6
20260830093043 64 136 0.0 0.0 0.00 0.00 0.00 94 1022.5
20260830091543 64 136 0.0 0.0 0.00 0.00 0.00 94 1022.5
20260830090043 64 136 0.0 0.0 0.00 0.00 0.00 94 1022.4
20260830084556 64 136 0.0 0.0 0.00 0.00 0.00 94 1022.4
20260830083041 64 136 0.0 0.0 0.00 0.00 0.00 94 1022.4
20260830081547 64 136 0.0 0.0 0.00 0.00 0.00 94 1022.5
20260830080039 64 136 0.0 0.0 0.00 0.00 0.00 94 1022.4
20260830074540 65 136 0.0 0.0 0.00 0.00 0.00 94 1022.5
20260830073039 65 136 0.0 0.0 0.00 0.00 0.00 94 1022.5
20260830071549 65 136 0.0 0.0 0.00 0.00 0.00 94 1022.7
20260830070038 65 136 0.0 0.0 0.00 0.00 0.00 93 1022.7
20260830064533 65 136 0.0 0.0 0.00 0.00 0.00 93 1022.7
20260830063038 65 136 0.0 0.0 0.00 0.00 0.00 93 1022.8
20260830061531 65 136 0.0 0.0 0.00 0.00 0.00 93 1022.9
20260830060030 65 136 0.0 0.0 0.00 0.00 0.00 93 1023.0
20260830054537 66 136 0.0 0.0 0.00 0.00 0.00 92 1023.2
20260830053028 66 136 0.0 0.0 0.00 0.00 0.00 92 1023.3
20260830051527 66 136 0.0 0.0 0.00 0.00 0.00 92 1023.3
20260830050027 66 136 0.0 0.0 0.00 0.00 0.00 92 1023.2
20260830044524 66 136 0.0 0.0 0.00 0.00 0.00 92 1023.0
20260830043023 66 136 0.0 0.0 0.00 0.00 0.00 92 1023.0
20260830041531 66 136 0.0 0.0 0.00 0.00 0.00 92 1022.9
20260830040026 66 136 0.0 0.0 0.00 0.00 0.00 92 1022.8
20260830034519 67 136 0.0 0.0 0.00 0.00 0.00 91 1022.6
20260830033018 67 136 0.0 0.0 0.00 0.00 0.00 90 1022.5
20260830031519 68 136 0.0 0.0 0.00 0.00 0.00 90 1022.5
20260830030017 68 136 0.0 0.0 0.00 0.00 0.00 89 1022.4
20260830024522 68 136 0.0 0.0 0.00 0.00 0.00 88 1022.6
20260830023017 69 136 0.0 0.0 0.00 0.00 0.00 88 1022.7
20260830021516 69 136 0.0 0.0 0.00 0.00 0.00 88 1022.6
20260830020016 70 136 0.0 0.0 0.00 0.00 0.00 88 1022.5